This is the latest recevied weather packets stored in our database for station/object KD0SBN-3. If no packets are shown the sender has not sent any weather packets the latest 10 day(s).
| Time | Temp. | Humidity | Pressure | Rain* | Wind** | Luminosity | Snow |
|---|---|---|---|---|---|---|---|
| 1778029297 | 1.11° C | 96% | 1016.8 hPa | 1.78 mm | - | 7 W/m² | - |
| 1778028994 | 1.67° C | 96% | 1016.9 hPa | 3.05 mm | - | 3 W/m² | - |
| 1778028691 | 2.22° C | 96% | 1016.8 hPa | 3.05 mm | - | 1 W/m² | - |
| 1778028387 | 3.33° C | 96% | 1016.5 hPa | 1.78 mm | - | 4 W/m² | - |
| 1778028084 | 3.33° C | 96% | 1016.6 hPa | 0 mm | - | 4 W/m² | - |
| 1778027780 | 3.33° C | 96% | 1016.2 hPa | 0 mm | - | 14 W/m² | - |
| 1778027477 | 3.33° C | 96% | 1016.5 hPa | 0 mm | - | 7 W/m² | - |
| 1778027173 | 3.33° C | 96% | 1016.5 hPa | 0 mm | - | 16 W/m² | - |
| 1778026869 | 3.33° C | 96% | 1016.4 hPa | 0 mm | - | 15 W/m² | - |
| 1778026565 | 3.33° C | 96% | 1016.5 hPa | 0 mm | - | 19 W/m² | - |
| 1778026262 | 3.89° C | 96% | 1016.5 hPa | 0 mm | - | 13 W/m² | - |
| 1778025960 | 3.89° C | 96% | 1016.4 hPa | 0 mm | - | 17 W/m² | - |
| 1778025657 | 3.89° C | 96% | 1016.4 hPa | 0 mm | - | 17 W/m² | - |
| 1778025355 | 3.33° C | 96% | 1016.1 hPa | 0 mm | - | 28 W/m² | - |
| 1778025052 | 3.33° C | 96% | 1016.1 hPa | 0 mm | - | 25 W/m² | - |
| 1778024749 | 3.33° C | 96% | 1016.1 hPa | 0 mm | - | 29 W/m² | - |
| 1778024445 | 3.33° C | 96% | 1016.4 hPa | 0 mm | - | 33 W/m² | - |
| 1778024143 | 3.33° C | 96% | 1016.2 hPa | 0 mm | - | 30 W/m² | - |
| 1778023840 | 3.33° C | 96% | 1016.4 hPa | 0 mm | - | 28 W/m² | - |
| 1778023538 | 3.89° C | 96% | 1016.5 hPa | 0 mm | - | 49 W/m² | - |
| 1778023235 | 3.33° C | 96% | 1016.6 hPa | 0 mm | - | 56 W/m² | - |
| 1778022932 | 3.33° C | 96% | 1016.8 hPa | 0 mm | - | 81 W/m² | - |
| 1778022631 | 3.33° C | 96% | 1016.6 hPa | 0 mm | - | 96 W/m² | - |
| 1778022327 | 3.33° C | 96% | 1016.9 hPa | 0 mm | - | 67 W/m² | - |
| 1778022024 | 3.33° C | 96% | 1016.8 hPa | 0 mm | - | 36 W/m² | - |
* Rain latest hour (hover to see other rain measurements)
** Current wind speed in m/s (hover to see current wind gust speed)